Wetbulb
59.14 59.22 59.05 58.88 59.23 59.48 59.66 59.76 60.02 60.24 60.37 60.62 60.75 60.94 61.22 61.71 61.52 64.35 60.97 69.18 72.16 77.92 78.75 76.55 75.87 74.87 75.28 74.10 73.40 71.43 63.28 58.98 59.99 60.03 62.35 65.89 64.50 67.34 68.00 66.60 67.96 69.53 69.84 71.73 75.02
58.81 58.90 58.65 58.48 58.59 58.93 59.10 59.44 59.54 59.70 59.85 60.08 60.40 60.70 61.12 61.69 63.79 61.23 72.59 78.25 77.18 78.62 75.72 73.58 72.64 73.83 72.27 70.47 70.20 66.52 61.04 60.76 63.87 64.75 64.01 64.95 65.34 65.89 65.54 65.79 66.73 68.17 71.00 72.46 73.93
58.56 58.30 58.18 58.11 58.24 58.45 58.88 58.94 59.24 59.21 59.30 59.60 60.16 60.73 61.33 62.56 61.98 62.26 77.33 78.46 78.34 78.75 75.65 74.47 73.88 72.73 68.86 69.34 67.16 64.85 62.04 63.59 63.81 65.81 66.17 64.75 64.98 67.00 65.03 63.78 66.64 66.83 69.16 71.00 72.23
57.83 57.71 57.70 57.80 58.02 58.23 58.46 58.59 58.78 58.77 58.83 59.38 60.01 60.73 61.84 64.58 57.21 71.80 77.89 78.25 78.77 78.40 74.46 73.03 72.21 69.66 66.16 63.71 67.05 62.99 64.59 64.64 64.85 65.89 65.53 64.24 65.49 64.86 65.40 65.86 68.81 69.74 70.79 70.86 70.84
57.21 57.05 57.11 57.31 57.53 57.76 57.96 57.93 57.98 58.07 58.46 59.03 59.84 60.69 63.69 58.48 60.09 75.64 79.36 78.76 78.01 77.12 72.77 71.79 71.19 69.91 64.14 65.29 66.76 64.56 64.47 65.59 66.12 66.13 66.37 66.07 63.91 64.63 64.90 67.46 69.52 70.26 70.49 70.05 70.62
56.92 57.13 57.40 57.15 57.30 57.46 57.54 57.26 57.10 57.25 58.11 59.14 59.98 60.35 61.75 55.61 68.11 76.21 76.05 76.85 75.79 74.90 72.98 73.32 70.17 70.01 67.18 66.25 65.62 66.17 64.93 65.35 66.13 65.69 65.99 64.27 63.49 65.43 65.57 68.31 68.71 69.43 69.79 70.18 70.41
56.53 56.60 57.09 56.91 57.06 57.06 56.90 56.48 56.37 57.09 58.25 59.74 60.41 63.42 60.66 58.19 66.13 75.16 75.93 75.65 74.71 74.40 72.29 73.60 72.59 69.89 68.52 65.80 67.94 66.61 63.33 64.51 65.33 65.91 64.81 66.00 62.00 62.27 66.33 68.04 67.71 68.60 69.43 70.25 70.89
56.38 56.46 56.76 56.66 56.55 56.55 56.34 56.02 56.06 57.90 60.30 61.55 61.04 63.99 57.88 61.54 69.01 72.38 75.09 73.66 74.03 75.27 74.50 74.68 73.90 71.35 68.12 68.52 66.29 63.62 63.81 59.87 64.65 65.43 65.67 65.52 56.27 64.08 66.67 66.67 66.66 67.88 68.76 69.38 71.04
56.70 56.58 56.51 56.35 56.28 56.19 55.53 55.37 56.73 61.09 60.93 61.50 63.55 63.45 55.26 62.10 64.02 71.63 74.43 71.17 72.33 74.52 74.29 72.21 71.51 68.67 67.82 64.23 60.90 62.51 54.64 56.01 58.17 65.98 64.72 63.90 56.68 64.82 66.61 66.68 66.20 67.22 68.10 69.60 70.93
56.53 56.42 56.38 56.29 56.06 55.37 54.72 54.80 58.65 61.08 63.57 65.31 64.34 58.30 58.42 55.29 60.86 71.13 74.09 72.21 70.71 71.98 70.47 69.27 68.12 64.69 64.86 63.16 53.38 53.87 56.30 58.71 59.91 61.72 64.17 62.53 62.25 62.46 65.31 64.81 66.05 66.69 67.72 68.73 69.91
56.42 56.03 55.92 55.76 55.25 54.39 55.84 62.89 60.92 59.83 61.11 58.74 58.56 57.50 56.33 59.21 62.06 69.28 71.89 70.28 70.49 68.66 64.56 66.43 63.28 61.27 62.14 62.70 61.84 62.05 59.86 57.49 61.98 64.45 63.26 61.35 62.31 62.53 62.86 65.77 64.18 66.61 66.86 67.66 69.46
55.95 55.70 54.84 54.75 54.47 53.66 56.79 61.91 59.76 59.61 57.00 60.24 59.35 58.56 59.42 60.13 56.64 64.58 71.52 66.97 65.95 62.90 64.98 62.75 60.68 62.56 62.29 64.58 62.58 61.00 59.49 58.53 61.54 64.99 63.20 62.32 61.85 64.51 65.74 65.22 65.35 65.16 66.27 68.53 68.70
55.80 55.46 54.42 53.82 53.56 56.42 61.66 61.00 61.92 61.65 56.33 58.15 59.07 58.60 58.51 59.22 55.44 59.75 68.53 67.02 64.34 62.38 62.05 59.78 61.38 64.99 62.65 62.61 60.56 58.66 58.67 58.60 59.62 63.50 64.09 62.12 59.38 63.18 64.56 65.09 67.45 66.77 66.61 68.39 69.07
55.64 55.25 53.62 52.53 53.75 61.84 59.73 62.49 62.47 61.96 53.59 54.67 56.15 58.06 59.50 58.48 54.80 59.93 67.67 66.09 63.11 61.02 60.95 60.51 62.42 62.78 60.17 61.22 60.95 57.81 61.69 60.98 60.20 59.71 54.51 62.25 54.64 60.04 62.36 63.81 65.80 65.97 65.81 67.85 68.86
55.34 54.52 52.67 52.07 57.53 57.82 61.10 63.34 62.76 60.63 47.04 55.59 56.35 62.06 60.27 56.41 56.67 56.40 65.58 64.47 60.60 60.40 60.92 59.01 59.54 61.09 61.14 59.81 62.27 59.47 61.14 62.28 60.78 59.71 59.46 58.82 55.61 56.88 63.70 62.86 64.33 66.19 65.85 67.94 68.86
54.44 53.37 52.23 55.90 57.78 60.32 62.46 62.40 60.55 51.77 46.42 52.72 56.49 56.07 56.26 56.22 55.77 57.30 59.45 64.04 63.36 61.11 61.44 60.43 62.90 62.38 61.71 62.02 63.73 64.65 62.33 62.01 62.01 61.03 52.96 53.91 58.49 53.65 57.19 61.87 63.86 65.95 66.55 67.75 67.85
52.78 51.59 52.86 60.42 59.54 60.88 62.04 59.22 51.19 48.60 56.17 53.14 53.20 55.29 55.47 54.22 54.45 54.78 54.92 57.20 56.53 54.62 56.15 59.21 60.34 62.09 63.48 61.78 63.49 62.72 59.43 52.85 50.50 48.86 46.78 53.76 57.45 59.41 62.22 63.73 64.33 65.10 66.61 67.92 68.83
50.93 50.14 56.48 60.53 63.00 61.21 60.19 54.90 48.55 52.32 53.34 55.39 54.36 54.94 53.34 55.08 54.27 53.60 53.66 53.50 57.18 55.71 55.42 55.11 52.76 59.56 63.44 61.69 60.09 60.84 59.17 53.42 48.69 49.89 47.98 54.19 55.62 59.14 63.67 65.79 65.83 66.57 67.36 68.02 67.69
50.04 61.06 62.47 63.17 62.33 61.92 56.93 50.09 51.03 53.43 54.37 52.99 53.54 52.40 52.81 54.65 53.78 53.07 52.72 52.74 54.88 55.90 53.17 53.94 54.25 59.85 61.65 63.34 62.33 58.86 57.54 61.56 56.84 56.63 55.26 53.62 57.21 62.06 64.57 64.03 65.01 65.33 66.31 67.02 68.49
58.10 61.04 61.81 61.71 62.27 59.88 54.42 48.72 52.17 55.76 54.49 54.42 51.79 53.39 51.74 53.23 52.49 52.44 52.53 54.54 53.82 56.28 57.75 55.78 52.08 57.56 60.08 62.43 63.14 60.57 61.66 56.26 57.40 51.61 49.37 53.10 54.50 50.67 61.20 62.82 64.27 64.33 65.20 67.31 68.96
58.53 57.48 61.27 62.02 60.47 55.33 50.37 51.94 53.01 55.59 55.28 53.83 53.47 53.64 53.76 53.26 53.74 52.58 52.55 54.47 55.36 55.34 56.93 55.99 54.09 53.56 57.83 58.00 57.66 59.21 57.86 58.27 59.05 56.92 52.84 52.44 52.71 58.84 62.65 63.87 64.23 64.54 65.78 67.15 68.60
58.60 53.03 61.73 61.13 52.81 53.98 51.99 54.29 46.67 54.28 55.92 54.83 55.13 55.14 54.70 54.84 53.42 52.92 52.36 54.49 56.13 56.07 53.33 55.55 53.19 50.49 51.81 57.72 61.00 59.29 58.44 57.62 52.98 54.40 52.67 55.58 56.95 61.92 63.39 65.25 65.81 65.54 66.73 67.83 69.51
56.13 57.21 61.47 60.21 50.99 52.36 54.22 52.50 52.91 52.56 54.42 54.11 53.96 55.00 55.44 54.86 52.83 53.88 54.51 56.76 56.23 55.16 53.98 54.94 51.55 48.16 49.74 54.59 58.74 56.78 57.11 57.52 58.40 55.55 48.24 46.55 55.82 64.69 64.38 65.53 66.27 65.93 67.03 68.05 68.85
55.46 52.04 55.95 56.69 56.27 53.70 53.69 52.38 51.20 52.74 53.34 54.21 54.90 55.18 55.05 54.37 56.07 54.30 53.68 55.76 56.56 55.96 60.56 60.07 52.70 50.30 47.74 51.59 56.42 56.21 56.40 57.04 57.66 55.37 55.49 55.19 57.51 59.14 63.28 63.69 65.31 65.95 67.66 68.49 69.73
56.43 54.26 55.38 53.16 52.44 52.88 52.85 52.67 51.27 50.54 52.48 53.81 54.08 54.22 54.53 53.20 53.98 53.84 55.58 55.37 55.58 56.40 57.08 54.99 50.85 52.65 52.58 53.03 53.89 54.25 55.67 56.54 57.09 58.50 55.99 56.75 57.38 59.77 63.16 64.30 65.29 66.66 68.06 68.05 69.19
52.42 52.49 55.53 52.43 53.73 53.31 49.74 51.39 50.82 51.45 51.47 51.63 51.35 54.21 54.53 54.30 55.29 53.91 55.09 55.45 54.86 56.70 55.10 55.18 50.87 52.91 51.45 52.57 52.73 51.31 53.69 56.87 56.88 58.96 59.14 58.71 58.03 61.71 63.01 65.99 65.77 66.51 67.34 67.92 68.13
55.55 56.42 52.59 49.60 51.80 50.60 51.12 51.93 51.04 52.60 52.59 53.20 53.14 53.12 52.87 54.13 54.43 55.73 56.41 57.04 57.70 56.45 55.20 54.97 52.37 51.73 49.56 52.73 52.06 49.26 51.97 53.22 55.64 59.57 58.74 56.42 59.84 61.36 62.50 63.89 65.83 66.32 67.61 67.69 67.40
MSLP
1017.14 1016.85 1016.51 1016.10 1015.75 1015.35 1015.09 1014.86 1014.51 1013.95 1013.59 1013.16 1013.00 1012.78 1012.30 1011.92 1011.36 1010.87 1008.01 1006.28 1006.91 1007.78 1007.84 1007.32 1006.74 1006.48 1006.29 1004.69 1003.93 1003.26 1002.89 1002.42 1002.52 1002.75 1003.90 1004.57 1004.90 1005.40 1005.51 1005.76 1006.18 1006.44 1006.91 1008.64 1010.31
1017.12 1016.81 1016.50 1016.12 1015.78 1015.37 1014.96 1014.77 1014.36 1013.98 1013.48 1013.13 1012.80 1012.55 1012.21 1011.85 1010.33 1007.88 1006.56 1006.48 1007.08 1007.52 1007.05 1006.30 1005.85 1005.62 1004.19 1003.34 1002.77 1002.90 1002.18 1001.96 1002.32 1002.59 1003.36 1004.28 1004.66 1005.34 1005.45 1006.17 1006.92 1008.03 1008.89 1009.28 1010.07
1017.10 1016.72 1016.37 1016.06 1015.72 1015.41 1015.00 1014.55 1014.31 1013.83 1013.38 1013.08 1012.62 1012.35 1012.06 1011.61 1008.78 1005.08 1006.08 1006.44 1006.96 1007.12 1005.73 1005.65 1004.98 1004.86 1003.40 1002.84 1002.45 1003.99 1002.23 1002.20 1002.78 1002.93 1003.26 1004.18 1004.68 1004.90 1005.00 1005.54 1006.45 1007.61 1008.61 1009.30 1009.50
1016.94 1016.61 1016.24 1015.93 1015.58 1015.22 1014.92 1014.41 1014.14 1013.73 1013.26 1012.88 1012.51 1012.15 1011.86 1010.53 1006.42 1005.35 1006.41 1006.53 1006.89 1006.42 1005.44 1005.31 1004.96 1004.27 1002.83 1003.41 1002.30 1002.91 1002.25 1002.42 1002.98 1003.60 1003.41 1004.10 1004.84 1004.71 1005.60 1005.32 1006.42 1007.49 1008.21 1008.65 1008.86
1016.82 1016.42 1016.12 1015.76 1015.45 1015.01 1014.63 1014.25 1013.79 1013.55 1012.99 1012.61 1012.32 1012.02 1011.20 1008.27 1005.13 1006.05 1006.71 1006.97 1007.02 1006.33 1005.11 1004.96 1004.26 1003.52 1002.78 1002.99 1002.68 1002.48 1002.61 1002.82 1003.20 1003.40 1003.72 1004.53 1004.72 1005.10 1005.80 1005.98 1006.66 1007.47 1008.03 1008.19 1008.61
1016.80 1016.29 1015.85 1015.57 1015.16 1014.72 1014.24 1013.96 1013.48 1013.08 1012.65 1012.22 1012.08 1011.99 1010.12 1006.03 1004.42 1005.70 1006.16 1006.67 1005.86 1005.24 1004.65 1004.32 1003.30 1003.19 1002.92 1002.56 1002.44 1002.48 1002.76 1002.93 1003.28 1003.56 1004.08 1004.19 1005.03 1005.04 1006.00 1006.29 1006.77 1007.47 1007.53 1007.98 1008.62
1016.73 1016.22 1015.72 1015.34 1014.87 1014.44 1013.95 1013.58 1013.05 1012.53 1012.19 1011.78 1011.78 1011.19 1007.90 1004.44 1004.32 1005.04 1005.48 1005.54 1004.71 1004.37 1003.72 1003.65 1003.90 1003.38 1002.50 1002.30 1002.97 1002.78 1002.92 1003.21 1003.39 1003.63 1004.08 1004.25 1005.12 1004.92 1005.95 1006.22 1006.77 1007.06 1007.31 1007.80 1008.52
1016.42 1015.89 1015.46 1015.07 1014.62 1014.11 1013.63 1013.09 1012.54 1011.94 1011.57 1011.31 1011.45 1010.11 1005.63 1004.27 1004.13 1004.32 1004.81 1004.77 1004.19 1003.88 1003.27 1003.48 1004.15 1003.11 1002.61 1002.91 1003.04 1003.01 1003.25 1004.03 1004.21 1004.21 1004.23 1005.50 1006.92 1005.48 1005.86 1005.96 1006.26 1006.61 1007.23 1007.90 1008.45
1016.35 1015.78 1015.18 1014.72 1014.32 1013.85 1013.24 1012.65 1011.91 1011.36 1010.96 1010.97 1010.54 1008.24 1004.41 1005.23 1004.28 1003.75 1004.04 1003.66 1003.80 1003.81 1003.92 1004.21 1003.65 1002.33 1002.61 1002.66 1003.08 1003.49 1005.11 1005.66 1006.81 1004.26 1004.11 1005.08 1007.76 1006.38 1005.38 1005.60 1005.77 1006.22 1006.91 1007.61 1008.61
1016.22 1015.64 1015.10 1014.46 1013.95 1013.43 1012.66 1012.18 1011.50 1011.14 1010.69 1009.76 1008.17 1006.56 1003.95 1003.03 1003.05 1003.27 1003.55 1003.29 1003.45 1003.57 1003.70 1003.67 1002.97 1002.03 1002.07 1002.39 1004.42 1005.39 1004.23 1004.77 1004.31 1005.51 1004.22 1004.55 1005.39 1007.30 1005.55 1005.82 1005.39 1006.06 1006.61 1007.36 1007.76
1016.03 1015.35 1014.72 1014.17 1013.65 1013.30 1012.54 1010.68 1010.42 1009.19 1007.80 1004.81 1003.85 1002.90 1002.32 1002.02 1002.68 1002.83 1003.12 1002.93 1003.19 1003.25 1002.77 1002.60 1001.91 1001.34 1002.13 1002.51 1003.40 1003.38 1003.95 1004.32 1003.83 1003.92 1004.03 1004.62 1004.86 1006.11 1007.11 1006.99 1005.70 1005.29 1006.09 1006.68 1007.19
1015.71 1015.02 1014.40 1013.81 1013.30 1012.92 1012.40 1008.25 1006.61 1006.33 1004.69 1003.99 1003.31 1002.54 1002.42 1002.68 1002.46 1002.28 1002.77 1002.56 1002.64 1002.22 1002.17 1001.41 1001.01 1001.90 1002.81 1003.00 1002.58 1002.94 1003.59 1004.14 1003.63 1003.95 1004.32 1003.85 1003.98 1004.24 1005.21 1005.01 1005.00 1004.89 1005.32 1005.70 1006.61
1015.30 1014.72 1014.14 1013.50 1012.87 1011.87 1008.99 1006.60 1006.55 1005.95 1004.04 1002.07 1002.29 1002.25 1002.41 1002.66 1001.35 1001.37 1002.25 1002.10 1001.94 1001.72 1001.12 1000.30 999.96 1001.17 1002.31 1002.00 1002.33 1003.49 1003.62 1004.14 1003.02 1003.30 1003.72 1003.66 1003.49 1002.77 1003.03 1003.48 1003.22 1004.40 1004.45 1004.85 1005.85
1014.99 1014.42 1013.98 1013.29 1012.64 1008.32 1007.03 1006.47 1006.38 1006.06 1003.22 1001.10 1001.37 1001.14 1001.42 1001.79 1001.02 1000.77 1001.69 1001.62 1001.01 1000.91 1000.37 1000.01 999.72 1001.13 1002.00 1001.25 1002.67 1002.68 1003.66 1002.82 1002.90 1003.18 1003.12 1003.49 1002.31 1002.10 1001.52 1001.40 1001.95 1003.02 1004.07 1004.22 1005.64
1014.68 1014.12 1013.83 1013.75 1011.29 1007.42 1006.23 1006.29 1005.99 1005.55 1001.13 999.78 1000.04 999.97 1000.54 1000.73 999.62 1000.34 1001.15 1001.11 1000.30 1000.29 999.99 999.26 999.31 999.89 1000.44 1000.22 1001.13 1002.76 1003.67 1002.66 1002.46 1002.85 1002.63 1002.43 1002.29 1000.78 999.83 999.42 999.97 1001.21 1001.88 1002.66 1004.55
1014.14 1013.65 1013.31 1011.97 1010.67 1007.20 1006.56 1006.24 1005.84 1003.79 999.40 999.09 999.70 1000.07 999.78 1000.12 999.39 999.84 1000.77 1001.20 1000.44 999.92 999.47 998.83 998.81 999.25 999.60 999.94 1000.99 1001.92 1001.67 1001.90 1002.19 1002.72 1002.65 1002.75 1001.19 1000.78 1000.16 998.11 998.65 999.89 1001.03 1001.88 1003.38
1013.28 1012.88 1012.68 1009.64 1006.82 1006.63 1006.56 1005.81 1003.68 1000.53 998.47 998.29 998.69 998.93 999.01 999.03 999.00 999.39 1000.03 1000.23 999.84 999.76 998.72 998.65 998.80 999.21 999.62 999.80 1000.77 1001.34 1000.89 1001.70 1003.45 1004.94 1005.62 1003.50 1000.41 998.60 997.77 997.76 997.69 998.60 1000.03 1001.27 1002.76
1012.42 1012.03 1010.29 1008.79 1007.26 1007.04 1006.37 1004.71 1001.34 998.25 997.40 997.63 997.67 998.14 998.05 998.00 998.37 999.23 999.31 999.19 999.78 999.03 998.04 997.70 998.14 998.38 999.33 999.68 999.41 1000.10 1000.25 1002.85 1003.76 1002.65 1003.37 1002.80 999.89 998.41 997.74 997.56 997.61 997.87 999.35 1000.79 1002.12
1011.40 1009.42 1007.99 1006.80 1007.21 1006.91 1005.38 1002.52 999.33 997.92 997.64 997.72 997.76 997.28 997.19 997.19 997.64 997.98 998.25 998.23 998.37 998.49 997.78 996.90 996.92 997.23 998.35 999.27 999.47 999.44 999.73 1000.76 1001.52 1000.64 1001.68 1003.81 1001.04 998.81 997.89 997.62 997.62 997.87 999.05 1000.20 1001.36
1010.73 1007.10 1005.79 1006.41 1006.62 1006.25 1004.47 1001.15 999.03 999.09 999.29 998.69 997.12 996.84 996.25 996.38 996.96 996.90 997.00 997.16 997.25 997.65 997.76 996.97 996.44 996.74 997.84 998.87 998.84 999.23 1000.56 1000.08 1001.17 1000.91 1001.87 1002.89 1002.43 1002.86 998.15 997.61 997.46 997.58 998.41 999.45 1000.70
1010.12 1006.03 1005.55 1006.13 1006.17 1005.01 1002.54 1000.43 999.42 999.78 999.98 998.85 997.54 996.34 995.92 995.78 996.29 996.21 996.37 996.54 996.70 996.78 997.40 997.32 996.81 996.98 997.21 998.20 998.62 999.33 999.69 999.77 1000.46 1000.36 1000.60 1000.77 1003.18 1000.98 998.56 997.22 997.21 997.52 998.01 998.79 1000.13
1008.13 1005.09 1005.40 1005.63 1004.96 1003.20 1001.44 1000.05 1000.58 999.83 1000.08 999.33 998.87 997.47 996.43 995.63 995.72 996.15 996.08 995.84 996.97 996.84 996.76 997.55 997.32 996.51 996.69 997.02 998.31 998.20 997.77 998.52 998.78 999.42 1001.33 1001.73 1000.20 999.61 997.38 996.77 996.78 997.17 997.92 998.72 1000.13
1007.86 1004.79 1005.09 1005.06 1003.17 1001.42 1000.88 1000.82 1000.92 1000.24 999.88 999.34 998.74 998.40 997.66 996.60 996.09 996.02 996.00 997.77 997.75 997.87 997.79 997.95 997.66 996.77 996.30 996.70 997.12 997.39 997.60 997.53 997.66 999.81 1003.50 1004.19 1000.49 998.31 996.98 996.47 996.68 996.99 998.12 999.36 1000.51
1008.87 1004.82 1004.12 1004.50 1003.32 1002.10 1000.36 1000.48 1000.61 1001.21 1000.48 1000.44 999.56 999.31 998.53 997.85 997.12 996.51 996.62 998.30 998.94 998.77 999.64 999.16 997.58 996.83 995.81 995.42 995.68 996.52 997.21 997.14 997.22 997.93 999.36 1000.47 998.59 997.80 996.49 996.28 996.54 997.15 998.43 999.66 1000.69
1008.38 1005.44 1005.58 1003.09 1002.82 1002.26 1001.65 1000.89 1000.35 1000.44 1001.36 1000.97 1000.14 999.70 998.75 998.08 997.72 997.61 997.78 998.70 999.70 999.74 999.83 999.32 997.63 996.84 996.24 995.64 995.19 995.27 995.87 996.40 996.66 996.98 997.59 997.84 997.25 996.06 995.76 995.95 996.68 997.40 998.69 999.72 1000.64
1009.61 1008.13 1006.66 1005.12 1004.19 1003.59 1002.63 1002.11 1001.31 1000.68 1001.33 1001.00 1000.83 999.83 999.93 999.33 998.77 998.05 998.20 998.62 998.79 999.43 999.47 998.77 997.95 997.30 996.57 996.04 995.63 995.38 995.07 995.17 995.79 995.98 996.26 995.99 995.60 995.34 995.38 995.91 996.60 997.42 998.55 999.59 1000.39
1011.08 1009.76 1008.82 1006.02 1004.71 1003.73 1002.70 1002.19 1001.96 1001.86 1002.33 1002.61 1001.95 1000.97 1001.26 1001.06 1001.77 1001.01 1000.07 999.23 998.75 998.89 998.38 997.96 997.62 997.19 996.41 996.24 995.92 995.28 995.04 994.89 994.85 994.94 995.66 995.04 994.91 995.54 995.58 996.13 996.16 996.97 998.13 999.23 1000.10
Wind_Speed
15 15 15 16 16 16 15 15 14 15 15 15 14 13 13 13 15 9 12 3 8 19 9 15 12 9 8 15 11 8 4 6 10 9 11 9 9 9 5 10 8 19 18 16 19
16 15 15 16 16 16 17 16 15 15 15 15 15 13 12 11 13 15 8 13 25 19 19 15 13 9 12 4 5 3 5 9 8 11 13 6 9 9 9 12 14 15 14 13 18
17 17 16 16 16 16 17 17 15 16 16 15 15 13 12 14 12 10 13 21 20 20 15 13 7 11 11 10 4 13 2 9 4 10 11 9 9 8 10 12 13 15 15 13 14
18 18 17 17 17 17 16 17 16 16 17 16 15 14 12 11 7 10 12 22 21 20 12 10 11 13 7 3 1 15 8 6 10 3 10 8 6 7 6 14 17 15 13 12 14
18 19 18 18 18 17 17 17 17 16 17 16 14 12 10 10 10 11 13 18 20 19 13 12 14 12 4 8 7 6 5 6 7 6 13 9 5 10 8 10 17 16 12 11 11
19 19 19 19 19 18 18 17 18 18 17 16 13 10 9 16 9 15 17 20 17 18 16 11 5 5 7 6 6 3 4 10 8 9 6 9 9 12 11 13 16 13 13 11 12
19 19 19 19 19 19 19 19 20 18 16 15 10 8 13 6 1 15 18 19 17 16 14 9 6 11 4 4 1 9 11 10 10 11 10 5 9 11 15 14 14 13 10 11 10
20 21 20 20 19 20 19 19 19 17 14 11 8 11 10 5 4 13 18 18 14 14 10 7 13 16 5 6 7 9 11 6 5 9 8 13 13 12 16 15 15 14 11 9 9
20 21 21 21 19 18 18 19 20 14 5 8 10 11 11 5 14 15 18 20 15 13 6 4 11 16 9 10 5 8 6 16 8 13 6 9 5 26 16 15 14 14 12 12 11
20 20 20 20 19 18 20 19 7 5 8 9 10 10 10 13 16 15 18 16 16 13 12 14 11 12 10 7 6 8 4 10 5 10 9 8 8 13 11 13 15 12 13 12 14
20 20 20 19 19 16 16 7 8 9 13 13 13 7 8 7 13 17 18 17 17 17 17 17 15 16 13 9 13 12 7 9 17 9 11 12 12 2 9 27 15 17 15 14 14
20 20 22 21 19 17 9 10 9 9 9 21 7 5 2 12 14 18 19 19 19 18 20 17 18 11 14 18 11 7 15 14 4 8 6 13 12 14 20 14 15 15 17 14 11
21 20 22 21 21 9 12 6 4 6 9 19 17 14 13 10 17 22 23 22 20 21 20 22 12 19 22 16 10 9 16 17 6 7 10 13 13 13 15 18 16 13 9 16 15
21 20 21 22 8 2 9 5 5 4 8 16 15 14 19 12 16 22 24 23 15 23 23 20 11 11 8 16 11 9 12 5 5 7 7 15 9 15 17 22 19 16 23 20 13
21 19 18 9 13 11 8 3 4 6 9 18 18 9 15 19 10 15 23 23 23 21 20 17 20 11 24 11 9 4 15 18 8 10 13 17 6 8 24 23 22 22 18 20 19
21 18 16 7 8 11 5 3 7 9 7 10 12 15 20 21 12 21 23 26 20 18 20 22 14 11 17 8 14 16 8 12 13 9 10 8 14 9 4 12 18 20 17 17 20
23 18 8 9 1 4 6 8 9 12 8 12 14 20 21 19 19 17 24 27 21 20 20 18 19 11 5 9 3 9 15 5 2 2 5 25 13 8 7 7 12 21 20 17 20
25 18 12 10 4 7 7 10 11 5 9 5 5 16 21 22 22 20 22 24 25 24 16 19 18 17 16 20 11 14 12 6 11 6 10 22 5 6 4 13 7 16 19 19 19
28 8 9 7 9 6 9 12 9 7 4 6 9 12 19 22 19 20 23 24 26 27 23 17 20 19 15 18 19 12 11 12 22 19 4 4 21 11 13 8 12 17 19 20 20
8 7 5 5 9 9 10 16 7 4 6 8 12 13 17 21 21 21 20 21 24 27 26 20 14 16 13 9 11 18 2 6 9 9 4 10 10 5 7 13 13 15 21 22 21
8 7 9 9 7 9 12 17 11 5 5 10 13 8 15 16 20 19 20 14 19 23 24 23 16 12 16 14 16 14 17 16 16 18 9 9 7 21 17 8 17 16 14 19 20
9 7 7 7 10 11 13 17 6 8 9 9 7 13 12 14 18 22 19 18 14 17 24 20 17 16 19 18 18 22 18 21 13 10 9 19 6 12 3 11 15 17 14 14 14
7 4 7 9 9 12 14 7 8 10 11 7 10 7 3 13 9 15 18 9 7 12 10 16 16 17 19 18 17 13 20 21 18 8 7 9 10 17 6 10 12 14 14 14 15
6 6 7 9 13 13 13 11 14 7 12 6 10 4 10 12 9 7 8 7 4 12 8 5 17 17 16 17 16 18 20 22 19 10 9 25 7 26 11 8 12 16 15 15 14
4 2 6 4 12 13 16 9 13 10 12 7 10 13 13 13 15 14 13 10 8 5 5 11 19 19 19 21 16 13 16 18 22 13 17 2 7 5 8 14 10 14 15 15 16
7 6 5 11 7 9 10 13 14 12 1 13 14 14 8 14 12 11 10 10 11 13 17 18 18 18 20 21 19 16 17 16 21 16 15 16 11 7 4 3 15 14 16 16 17
6 4 6 4 11 11 11 12 15 12 6 10 11 10 12 2 7 11 11 11 5 9 15 17 14 18 15 14 15 19 20 17 17 17 14 17 12 6 1 5 12 17 16 16 16
Wind_Direction
351 349 346 344 341 339 339 337 335 329 326 324 325 323 316 314 296 218 241 83 158 165 173 176 191 190 209 247 255 270 251 106 60 96 118 134 119 70 107 104 75 49 67 100 119
346 344 343 341 340 337 334 334 330 326 322 320 319 318 313 316 273 250 141 116 145 170 187 180 196 192 214 234 258 181 293 74 57 99 116 125 116 126 130 115 101 98 103 126 126
342 340 339 338 336 334 330 326 326 322 317 316 314 314 310 302 265 222 139 142 161 184 196 206 222 220 255 211 199 114 123 95 69 41 112 118 128 182 138 134 133 119 125 139 144
338 337 337 336 334 332 329 322 321 318 313 311 309 311 311 256 236 79 159 156 172 197 192 200 242 221 235 48 76 355 72 74 83 207 109 97 106 132 82 115 115 123 124 136 156
335 334 334 333 332 328 326 321 316 313 307 304 303 311 281 218 253 117 150 163 178 212 191 192 220 245 248 189 236 190 121 111 116 138 94 156 155 107 121 131 125 124 145 143 106
334 333 331 332 330 326 323 320 312 308 300 294 292 302 242 244 94 133 163 168 184 208 203 196 258 350 292 292 212 187 159 132 171 129 140 120 129 157 139 144 132 154 150 144 134
332 331 328 329 328 325 321 316 309 302 292 281 270 258 253 234 284 153 171 184 198 203 200 204 313 265 255 161 34 201 173 168 180 161 141 147 169 175 154 156 154 176 172 136 144
330 330 328 328 327 322 318 310 305 296 281 260 235 237 264 127 260 175 178 197 209 218 265 120 210 260 277 107 209 184 223 207 148 173 142 113 273 135 162 176 170 178 166 163 137
326 326 325 324 322 318 313 308 298 291 243 189 211 235 226 133 205 193 189 192 191 209 199 216 261 247 156 224 215 220 127 243 229 199 152 223 189 255 165 187 173 174 169 173 159
324 323 322 320 320 320 313 296 317 249 208 212 272 225 222 210 189 175 198 197 193 197 211 214 225 226 221 205 165 271 256 343 236 272 199 232 184 224 160 218 173 180 170 182 167
324 322 322 322 319 320 313 195 202 190 204 215 182 231 122 129 151 187 193 193 198 210 217 201 226 223 210 162 245 199 257 225 227 164 216 221 209 274 343 287 226 175 184 179 187
324 323 325 322 316 313 268 252 50 348 244 223 245 215 246 168 183 193 190 199 200 207 219 212 233 106 28 262 237 234 257 359 232 129 234 257 251 195 195 221 227 237 165 178 195
324 323 325 320 316 272 240 307 330 311 255 183 207 210 186 210 209 186 191 202 199 217 211 242 212 158 174 209 215 24 309 184 294 163 228 262 254 263 218 212 235 182 207 165 202
322 322 325 322 289 208 224 168 257 286 266 159 194 213 203 208 224 193 192 204 196 221 231 224 229 152 337 250 273 190 272 268 271 252 228 210 278 217 243 208 188 222 164 182 181
319 318 319 309 321 242 58 245 277 234 253 138 149 115 175 206 176 200 187 211 229 218 230 218 238 212 206 232 158 299 138 269 251 245 261 200 245 205 218 213 190 191 215 176 180
318 316 315 206 220 275 276 254 237 230 242 153 149 189 191 207 181 174 191 223 230 251 237 242 221 215 238 270 156 251 241 245 247 282 250 294 224 46 108 193 184 184 204 186 174
318 315 267 312 267 178 230 227 216 248 115 154 176 175 196 190 210 168 192 200 216 224 228 216 232 210 271 201 190 239 246 277 113 48 22 290 246 155 97 162 186 181 183 178 160
318 314 195 266 298 239 223 222 249 216 200 89 174 181 200 193 207 185 194 200 211 223 219 218 215 204 170 250 222 213 250 134 273 276 218 254 227 195 86 153 226 163 158 176 180
311 203 224 172 210 226 230 225 230 264 20 216 187 204 199 199 207 194 205 210 208 222 231 214 227 191 201 217 250 220 224 229 246 276 0 4 266 48 132 181 173 154 164 175 175
298 228 153 157 183 220 239 251 283 336 318 264 237 212 197 202 201 194 205 213 217 209 233 242 265 201 164 248 221 268 310 272 348 305 29 266 2 340 307 164 176 174 178 173 170
252 228 112 165 203 224 232 236 243 163 251 253 247 253 244 194 205 219 219 211 216 215 214 240 254 228 190 190 233 204 245 250 214 249 266 277 80 235 257 214 174 184 185 169 171
281 230 133 182 216 225 236 253 12 259 208 260 274 298 268 248 199 225 212 211 195 247 200 220 242 242 247 191 211 263 249 223 237 253 4 316 116 275 23 184 169 182 176 151 156
279 295 155 213 240 227 228 249 239 250 237 230 239 241 245 287 238 223 223 71 150 221 241 216 228 251 223 210 209 249 240 261 261 107 93 290 296 292 113 142 164 163 152 147 161
272 230 172 209 260 288 278 206 215 213 280 261 286 273 238 240 244 236 231 117 200 215 25 299 244 227 248 231 200 198 235 237 256 232 227 217 191 223 108 144 163 146 146 155 173
244 356 29 199 222 235 263 279 235 206 227 220 237 253 237 235 215 232 222 138 215 145 240 233 237 244 249 266 267 231 201 231 224 239 245 139 290 317 111 145 174 150 160 167 181
314 337 345 281 289 267 252 244 250 249 265 223 239 232 242 258 327 271 208 191 189 183 216 221 247 257 252 246 256 251 262 210 228 243 259 280 290 358 82 105 164 173 166 172 181
5 264 272 266 261 246 254 240 255 263 117 282 326 281 231 61 358 346 343 325 7 229 209 223 224 237 236 240 252 241 246 245 252 224 221 254 250 121 127 206 185 179 172 176 183